Sunshine Coast Airport Observation History
Time Wind Speed Temp Pressure Rel. Hum Rain
22/12:00pm SSE 26-37 kts 27.7°c 1008.0 hPa 53% 0.0mm
22/11:30am SSE 27-37 kts 28.1°c 1007.9 hPa 58% 0.0mm
22/11:01am SSE 26-39 kts 28.0°c 1008.1 hPa 52% 0.0mm
22/11:00am SSE 25-34 kts 28.3°c 1008.1 hPa 53% 0.0mm
22/10:31am SSE 26-36 kts 28.3°c 1007.9 hPa 52% 0.0mm
22/10:30am SSE 27-36 kts 28.2°c 1007.9 hPa 52% 0.0mm
22/10:00am S 25-39 kts 27.5°c 1007.9 hPa 51% 0.0mm
22/09:30am S 22-32 kts 26.6°c 1007.9 hPa 65% 0.0mm
22/09:07am S 23-33 kts 26.3°c 1007.7 hPa 61% 0.0mm
22/09:00am S 23-32 kts 26.7°c 1007.6 hPa 60% 12.0mm
22/08:32am S 25-38 kts 26.0°c 1007.7 hPa 64% 12.0mm
22/08:30am S 25-32 kts 25.9°c 1007.6 hPa 66% 12.0mm
22/08:02am S 24-34 kts 25.5°c 1007.4 hPa 70% 12.0mm
22/08:00am S 25-34 kts 25.5°c 1007.3 hPa 71% 12.0mm
22/07:30am S 21-36 kts 23.7°c 1007.3 hPa 81% 12.0mm
22/07:26am S 21-36 kts 23.7°c 1007.4 hPa 79% 11.8mm
22/07:00am S 21-29 kts 24.0°c 1007.0 hPa 80% 11.8mm
22/06:51am S 17-28 kts 23.7°c 1007.0 hPa 81% 11.8mm
22/06:30am S 17-25 kts 23.9°c 1006.8 hPa 80% 11.8mm
22/06:00am S 19-26 kts 23.5°c 1006.6 hPa 84% 11.8mm
22/05:44am S 15-24 kts 22.8°c 1006.5 hPa 93% 11.8mm
22/05:30am S 12-17 kts 22.3°c 1006.5 hPa 94% 11.8mm
22/05:29am S 13-17 kts 22.3°c 1006.5 hPa 94% 11.6mm
22/05:04am S 16-24 kts 22.7°c 1006.4 hPa 91% 8.0mm
22/05:00am S 15-20 kts 22.9°c 1006.3 hPa 91% 7.4mm
22/04:30am S 21-29 kts 23.4°c 1006.2 hPa 88% 7.0mm
22/04:28am S 21-26 kts 23.4°c 1006.1 hPa 89% 7.0mm
22/04:00am S 15-24 kts 22.9°c 1005.9 hPa 91% 5.2mm
22/03:59am S 15-21 kts 22.9°c 1005.9 hPa 91% 4.8mm
22/03:53am S 15-21 kts 23.3°c 1006.1 hPa 88% 1.6mm
22/03:42am S 14-19 kts 23.9°c 1005.8 hPa 85% 0.0mm
22/03:30am S 17-27 kts 23.8°c 1005.9 hPa 83% 0.0mm
22/03:27am S 17-27 kts 24.1°c 1006.0 hPa 82% 0.0mm
22/03:00am S 19-28 kts 24.4°c 1006.0 hPa 79% 0.0mm
22/02:43am S 19-29 kts 24.6°c 1006.0 hPa 81% 0.0mm
22/02:30am S 18-25 kts 24.6°c 1006.2 hPa 81% 0.0mm
22/02:00am S 15-23 kts 25.4°c 1006.2 hPa 77% 0.0mm
22/01:30am S 17-22 kts 24.9°c 1006.4 hPa 79% 0.0mm
22/01:00am SSE 18-28 kts 26.0°c 1006.6 hPa 73% 0.0mm
22/12:58am S 17-28 kts 26.0°c 1006.6 hPa 72% 0.0mm
22/12:30am S 18-24 kts 26.0°c 1006.7 hPa 73% 0.0mm
22/12:09am S 17-27 kts 26.2°c 1007.1 hPa 72% 0.0mm
22/12:00am S 17-24 kts 26.4°c 1007.1 hPa 71% 0.0mm
Time Wind Speed Temp Pressure Rel. Hum Rain
21/11:30pm S 18-26 kts 26.2°c 1007.2 hPa 71% 0.0mm
21/11:00pm S 15-25 kts 26.3°c 1007.4 hPa 73% 0.0mm
21/10:43pm SSE 19-31 kts 26.4°c 1007.5 hPa 72% 0.0mm
21/10:30pm S 18-24 kts 26.1°c 1007.7 hPa 74% 0.0mm
21/10:00pm SSE 20-28 kts 26.4°c 1007.8 hPa 72% 0.0mm
21/09:39pm SSE 19-29 kts 26.6°c 1008.1 hPa 70% 0.0mm
21/09:30pm SSE 19-25 kts 26.5°c 1008.0 hPa 74% 0.0mm
21/09:02pm SSE 17-27 kts 26.4°c 1008.1 hPa 71% 0.0mm
21/09:00pm SSE 18-27 kts 26.5°c 1008.1 hPa 71% 0.0mm
21/08:36pm SSE 20-30 kts 26.7°c 1007.9 hPa 69% 0.0mm
21/08:30pm SSE 17-22 kts 26.6°c 1007.8 hPa 71% 0.0mm
21/08:00pm SSE 19-26 kts 26.6°c 1007.6 hPa 70% 0.0mm
21/07:30pm SSE 22-28 kts 26.7°c 1007.5 hPa 68% 0.0mm
21/07:00pm SSE 19-25 kts 26.7°c 1007.4 hPa 73% 0.0mm
21/06:30pm SE 21-29 kts 26.9°c 1007.0 hPa 70% 0.0mm
21/06:23pm SE 21-31 kts 27.0°c 1006.9 hPa 69% 0.0mm
21/06:00pm SSE 20-28 kts 27.2°c 1006.2 hPa 67% 0.0mm
21/05:30pm SSE 19-25 kts 27.6°c 1006.0 hPa 69% 0.0mm
21/05:00pm SSE 19-26 kts 27.8°c 1005.7 hPa 69% 0.0mm
21/04:30pm SSE 19-28 kts 28.6°c 1005.7 hPa 65% 0.0mm
21/04:26pm SSE 18-28 kts 29.0°c 1005.6 hPa 64% 0.0mm
21/04:00pm SSE 17-25 kts 29.4°c 1005.5 hPa 63% 0.0mm
21/03:30pm SSE 18-28 kts 29.6°c 1005.6 hPa 58% 0.0mm
21/03:00pm SE 18-25 kts 29.6°c 1005.6 hPa 58% 0.0mm
21/02:30pm SSE 21-27 kts 29.8°c 1006.0 hPa 61% 0.0mm
21/02:00pm SSE 17-23 kts 29.1°c 1006.3 hPa 66% 0.0mm
21/01:30pm SSE 19-30 kts 29.6°c 1006.8 hPa 66% 0.0mm
21/01:24pm SSE 19-30 kts 29.1°c 1007.0 hPa 64% 0.0mm
21/01:00pm SSE 19-26 kts 29.3°c 1007.2 hPa 63% 0.0mm
21/12:30pm SSE 17-23 kts 29.2°c 1007.3 hPa 63% 0.0mm
21/12:19pm SSE 17-25 kts 29.1°c 1007.4 hPa 66% 0.0mm
21/12:09pm SSE 18-26 kts 26.5°c 1007.6 hPa 79% 0.0mm
21/12:00pm SSE 17-24 kts 27.8°c 1007.6 hPa 70% 0.0mm
21/11:30am SSE 18-24 kts 28.8°c 1007.6 hPa 70% 0.0mm
21/11:00am SSE 16-25 kts 29.8°c 1007.8 hPa 65% 0.0mm
21/10:30am SE 18-25 kts 26.1°c 1008.0 hPa 76% 0.0mm
21/10:00am SE 18-24 kts 28.5°c 1007.8 hPa 68% 0.0mm
21/09:30am SSE 17-23 kts 29.4°c 1007.6 hPa 65% 0.0mm
21/09:00am SSE 17-22 kts 27.6°c 1007.5 hPa 72% 0.0mm
21/08:30am SSE 15-21 kts 27.7°c 1007.2 hPa 72% 0.0mm
21/08:00am SSE 15-22 kts 28.4°c 1007.0 hPa 69% 0.0mm
21/07:30am SSE 14-20 kts 27.7°c 1006.8 hPa 72% 0.0mm
21/07:00am SSE 12-17 kts 27.2°c 1006.5 hPa 75% 0.0mm
21/06:43am SSE 13-17 kts 26.9°c 1006.4 hPa 76% 0.0mm
21/06:30am SSE 12-19 kts 26.8°c 1006.4 hPa 77% 0.0mm
21/06:23am SSE 13-20 kts 26.6°c 1006.4 hPa 79% 0.0mm
21/06:22am SSE 13-20 kts 26.6°c 1006.4 hPa 79% 0.0mm
21/06:00am SE 12-18 kts 26.3°c 1006.1 hPa 80% 0.0mm
21/05:30am S 7-9 kts 25.3°c 1005.8 hPa 86% 0.0mm
21/05:00am S 7-8 kts 25.4°c 1005.5 hPa 86% 0.0mm
21/04:30am S 7-10 kts 25.4°c 1005.2 hPa 85% 0.0mm
21/04:00am SSE 11-15 kts 25.7°c 1005.1 hPa 85% 0.0mm
21/03:54am SSE 11-16 kts 25.8°c 1005.2 hPa 84% 0.0mm
21/03:30am SSE 10-15 kts 25.4°c 1005.3 hPa 85% 0.0mm
21/03:28am SSE 10-15 kts 25.4°c 1005.2 hPa 85% 0.0mm
21/03:00am S 11-14 kts 25.3°c 1005.5 hPa 86% 0.0mm
21/02:30am SSE 13-18 kts 26.1°c 1005.8 hPa 82% 0.0mm
21/02:26am SSE 12-18 kts 26.1°c 1005.9 hPa 83% 0.0mm
21/02:00am SSE 14-20 kts 26.1°c 1006.1 hPa 83% 0.0mm
21/01:35am SSE 15-20 kts 26.3°c 1006.5 hPa 81% 0.0mm
21/01:30am SSE 14-20 kts 26.3°c 1006.6 hPa 81% 0.0mm
21/01:24am SSE 14-21 kts 26.4°c 1006.7 hPa 81% 0.0mm
21/01:19am SSE 13-21 kts 26.4°c 1006.7 hPa 81% 0.0mm
21/01:06am S 12-17 kts 26.2°c 1006.8 hPa 83% 0.0mm
21/01:00am S 11-15 kts 26.1°c 1006.9 hPa 83% 0.0mm
21/12:30am SSE 11-17 kts 26.3°c 1007.2 hPa 82% 0.0mm
21/12:00am SSE 12-17 kts 26.2°c 1007.1 hPa 81% 0.0mm
Time Wind Speed Temp Pressure Rel. Hum Rain
20/11:30pm SSE 12-15 kts 26.4°c 1007.2 hPa 81% 0.0mm
20/11:00pm SSE 11-15 kts 26.3°c 1007.3 hPa 81% 0.0mm
20/10:30pm SE 10-13 kts 26.2°c 1006.9 hPa 84% 0.0mm
20/10:03pm SE 10-15 kts 26.3°c 1006.8 hPa 83% 0.0mm
20/10:00pm SE 10-14 kts 26.3°c 1006.9 hPa 82% 0.0mm
20/09:53pm SE 11-15 kts 26.3°c 1006.9 hPa 82% 0.0mm
20/09:30pm SSE 8-12 kts 26.0°c 1007.0 hPa 83% 0.0mm
20/09:00pm SSE 8-11 kts 26.0°c 1006.9 hPa 82% 0.0mm
20/08:34pm SE 10-13 kts 26.2°c 1006.7 hPa 81% 0.0mm
20/08:30pm SE 10-13 kts 26.2°c 1006.7 hPa 80% 0.0mm
20/08:16pm SE 9-12 kts 26.2°c 1006.6 hPa 80% 0.0mm
20/08:00pm SE 9-12 kts 26.3°c 1006.5 hPa 80% 0.0mm
20/07:35pm SE 9-11 kts 26.2°c 1006.3 hPa 80% 0.0mm
20/07:30pm SE 8-11 kts 26.2°c 1006.3 hPa 81% 0.0mm
20/07:00pm SE 9-12 kts 26.5°c 1006.1 hPa 79% 0.0mm
20/06:45pm SE 8-13 kts 26.5°c 1006.0 hPa 78% 0.0mm
20/06:44pm SE 8-13 kts 26.4°c 1006.0 hPa 78% 0.0mm
20/06:30pm SE 10-13 kts 26.5°c 1006.0 hPa 77% 0.0mm
20/06:25pm SE 10-13 kts 26.6°c 1006.0 hPa 77% 0.0mm
20/06:00pm SE 11-14 kts 26.8°c 1005.8 hPa 76% 0.0mm
20/05:30pm SE 10-13 kts 27.3°c 1005.6 hPa 73% 0.0mm
20/05:00pm SE 13-16 kts 27.6°c 1005.4 hPa 71% 0.0mm
20/04:30pm SE 14-17 kts 28.1°c 1005.5 hPa 68% 0.0mm
20/04:00pm SE 14-17 kts 28.3°c 1005.1 hPa 65% 0.0mm
20/03:30pm SE 13-17 kts 29.0°c 1005.2 hPa 66% 0.0mm
20/03:00pm ESE 12-17 kts 29.1°c 1005.3 hPa 61% 0.0mm
20/02:30pm SE 13-19 kts 29.2°c 1005.4 hPa 62% 0.0mm
20/02:00pm SE 13-17 kts 29.1°c 1006.0 hPa 64% 0.0mm
20/01:30pm SE 13-16 kts 29.0°c 1006.5 hPa 62% 0.0mm
20/01:00pm SE 12-16 kts 29.4°c 1007.1 hPa 63% 0.0mm
20/12:30pm SE 14-17 kts 29.9°c 1007.3 hPa 63% 0.0mm
20/12:00pm SE 13-16 kts 29.3°c 1007.7 hPa 62% 0.0mm
20/11:30am SE 12-15 kts 29.0°c 1008.0 hPa 62% 0.0mm
20/11:00am SE 13-17 kts 29.4°c 1008.4 hPa 60% 0.0mm
20/10:30am SE 12-15 kts 29.9°c 1008.7 hPa 62% 0.0mm
20/10:00am SSE 13-17 kts 28.8°c 1008.8 hPa 63% 0.0mm
20/09:30am SSE 12-16 kts 28.4°c 1008.7 hPa 63% 0.0mm
20/09:00am SSE 13-17 kts 27.7°c 1008.6 hPa 63% 0.0mm
20/08:30am SSE 10-15 kts 27.4°c 1008.6 hPa 67% 0.0mm
20/08:00am SSE 10-15 kts 26.9°c 1008.4 hPa 71% 0.0mm
20/07:30am S 9-13 kts 26.1°c 1008.2 hPa 75% 0.0mm
20/07:00am S 7-9 kts 24.3°c 1007.8 hPa 93% 0.0mm
20/06:30am SW 6-7 kts 22.1°c 1007.7 hPa 98% 0.0mm
20/06:00am WSW 5-6 kts 21.3°c 1007.4 hPa 97% 0.0mm
20/05:30am SW 5-6 kts 21.4°c 1007.1 hPa 97% 0.0mm
20/05:00am SW 5-6 kts 21.2°c 1006.8 hPa 97% 0.0mm
20/04:30am SSW 5-7 kts 21.3°c 1006.6 hPa 98% 0.0mm
20/04:00am SW 4-5 kts 21.1°c 1006.3 hPa 98% 0.0mm
20/03:30am SW 4 kts 20.7°c 1006.0 hPa 97% 0.0mm
20/03:00am CALM 0 kts 20.1°c 1005.9 hPa 97% 0.0mm
20/02:30am CALM 0 kts 20.7°c 1005.9 hPa 96% 0.0mm
20/02:00am CALM 0 kts 21.1°c 1006.0 hPa 97% 0.0mm
20/01:30am WSW 3-4 kts 21.1°c 1006.3 hPa 96% 0.0mm
20/01:00am W 4-5 kts 21.2°c 1006.4 hPa 95% 0.0mm
20/12:30am W 3-5 kts 21.1°c 1006.8 hPa 93% 0.0mm
20/12:00am WNW 1-3 kts 21.9°c 1007.2 hPa 93% 0.0mm